Orbital Elements at Epoch 2459200.5 (2020-Dec-17.0) TDB
Reference: JPL 17 (heliocentric ecliptic J2000)
Element | Value | Uncertainty (1-sigma) | Units |
e | .173080460820997 | 3.7381e-08 | |
a | 2.436809272297109 | 1.1288e-08 | au |
q | 2.015045200515047 | 9.4752e-08 | au |
i | 1.454552285302376 | 4.9899e-06 | deg |
node | 317.1800367324242 | 0.00015137 | deg |
peri | 325.6424121986553 | 0.00015208 | deg |
M | 343.0048479163563 | 1.4435e-05 | deg |
tp | 2459266.092364858397 (2021-Feb-20.59236486) | 5.572e-05 | TDB |
period | 1389.411005727251 3.80 | 9.654e-06 2.643e-08 | d yr |
n | .2591025970832637 | 1.8003e-09 | deg/d |
Q | 2.858573344079171 | 1.3241e-08 | au |
|
| | Orbit Determination Parameters
Additional Information
|